Hauptseite
METAR-TAF:

METAR-TAF

Flughäfen :

Riviera Airport

Albenga, Italien

Breite: 44-03N, Länge: 008-07E, Höhe: 45 m

Beobachtung

Neuester Wetterbericht von vor 28 Minuten, um 12:50 UTC
Wind 7 kt aus Ost/Südost
Temperatur 32°C
Luftfeuchtigkeit 28%
Luftdruck 1012 hPa
Sichtweite 10 km oder mehr
keine Wolken unter 1500 m und keine Kumulonimbus oder Gewitterwolken

METAR: LIMG 171250Z 11007KT CAVOK 32/11 Q1012

Zeit: 15:18 (13:18 UTC)


TAF: fehlend

Wetterbeobachtungen und Prognosen von mehr als 4000 Flughäfen (METAR und TAF Bericht).

Die verfügbaren Stationen werden durch gelbe und rote Markierungen auf der Karte dargestellt.

Führen Sie die Maus auf sie, um den Namen der Station zu sehen.

Darauf klicken, um die Beobachtung von Wetterbeobachtungen und Prognosen zu sehen.

Um die Karte zu ändern : klicken Sie auf den grünen Tasten mit einem schwarzen Kreuz Zum Vergrößern, auf den grünen Button mit einem Gedankenstrich zu verkleinern, oder auf die grünen Pfeile für benachbarte Karten.


METAR-TAF: